Location: G�kdere
(37.0328°N, 30.9000°E)
Time: 05:40:24
(UTC+00:00)

Cosmos 2228 Rocket - Pass Details

Date: 03 March 2021
Orbit: 617 x 653 km, 82.5° (Epoch: 19 April)

Event Time Altitude Azimuth Distance (km) Brightness Sun altitude
Rises 16:07:21 0° 346° (NNW) 2,944 6.7 -3.8°
Reaches altitude 10° 16:09:41 10° 340° (NNW) 2,025 5.9 -4.2°
Maximum altitude 16:13:58 47° 268° (W) 840 4.4 -5.1°
Drops below altitude 10° 16:18:12 10° 194° (SSW) 1,990 5.9 -5.9°
Sets 16:20:28 0° 189° (S) 2,887 6.7 -6.4°
